Weather History for KP28 - May, 2014

Change the Weather History Date:

Thursday, May 8, 2014

  Actual Average Record
Temperature  
Mean Temperature 71 °F 64 °F  
Max Temperature 83 °F 76 °F 104 °F (2011)
Min Temperature 58 °F 52 °F 31 °F (1938)
Degree Days  
Heating Degree Days 0 3  
Month to date heating degree days 22 33  
Since 1 July heating degree days 4961 4418  
Cooling Degree Days 6 3  
Month to date cooling degree days 75 16  
Year to date cooling degree days 104 40  
Growing Degree Days 22 (Base 50)    
Moisture  
Dew Point 48 °F    
Average Humidity 54    
Maximum Humidity 87    
Minimum Humidity 21    
Precipitation  
Precipitation 0.00 in 0.08 in 1.65 in (1904)
Month to date precipitation 0.00 0.79  
Year to date precipitation 2.07 7.23  
Snow  
Snow 0.00 in 0.00 in - ()
Month to date snowfall 0.0 0.0  
Since 1 July snowfall 28.5 8.5  
Snow Depth 0.00 in    
Sea Level Pressure  
Sea Level Pressure 29.67 in    
Wind  
Wind Speed 13 mph (West)    
Max Wind Speed 26 mph    
Max Gust Speed 39 mph    
T = Trace of Precipitation, MM = Missing Value Source: NWS Daily Summary

Daily Weather History Graph

Daily Weather History Graph

Search for Another Location

Airport or City:

Trip Planner

Search our weather history database for the weather conditions in past years. The results will help you decide how hot, cold, wet, or windy it might be!

Date:

Astronomy

May. 08, 2014 Rise Set
Actual Time 6:31 AM CDT 8:30 PM CDT
Civil Twilight 6:03 AM CDT 8:58 PM CDT
Nautical Twilight 5:28 AM CDT 9:33 PM CDT
Astronomical Twilight 4:51 AM CDT 10:11 PM CDT
Moon 2:39 PM CDT (5/8) 2:55 AM CDT (5/8)
Length of Visible Light 14h 55m
Length of Day
13h 58m
Waxing Gibbous, 65% of the Moon is Illuminated
May 8
Waxing Gibbous
May 14
Full
May 21
Last Quarter
May 28
New
Jun 5
First Quarter

Hourly Weather History & Observations

Time (CDT) Temp. Dew Point Humidity Pressure Visibility Wind Dir Wind Speed Gust Speed Precip Events Conditions
12:56 AM 71.1 °F 64.0 °F 78% 29.62 in - South 25.3 mph 36.8 mph N/A   Unknown
1:56 AM 69.1 °F 63.0 °F 81% 29.62 in - South 16.1 mph 23.0 mph N/A   Unknown
2:56 AM 68.0 °F 62.1 °F 81% 29.60 in - SSE 11.5 mph 21.9 mph N/A   Unknown
3:56 AM 68.0 °F 61.0 °F 78% 29.62 in - SSE 12.7 mph 19.6 mph N/A   Unknown
4:56 AM 66.9 °F 61.0 °F 81% 29.62 in - SSE 10.4 mph 20.7 mph N/A   Unknown
5:56 AM 66.9 °F 62.1 °F 84% 29.63 in - SSE 10.4 mph 20.7 mph N/A   Unknown
6:56 AM 66.9 °F 63.0 °F 87% 29.65 in - South 13.8 mph 20.7 mph N/A   Unknown
7:56 AM 66.9 °F 61.0 °F 81% 29.66 in - South 15.0 mph - N/A   Unknown
8:56 AM 73.0 °F 55.0 °F 53% 29.66 in - SSW 16.1 mph 21.9 mph N/A   Unknown
9:56 AM 78.1 °F 50.0 °F 37% 29.65 in - SSW 19.6 mph 27.6 mph N/A   Unknown
10:56 AM 79.0 °F 48.0 °F 34% 29.66 in - SW 18.4 mph 23.0 mph N/A   Unknown
11:14 AM 78.1 °F 39.9 °F 25% 29.71 in - WNW 16.1 mph 28.8 mph N/A   Unknown
11:56 AM 79.0 °F 41.0 °F 26% 29.67 in - WNW 16.1 mph 21.9 mph N/A   Unknown
12:56 PM 79.0 °F 42.1 °F 27% 29.67 in - WNW 10.4 mph 19.6 mph N/A   Unknown
1:56 PM 81.0 °F 41.0 °F 24% 29.65 in - NW 11.5 mph 20.7 mph N/A   Unknown
2:56 PM 81.0 °F 39.9 °F 23% 29.66 in - Variable 6.9 mph 17.3 mph N/A   Unknown
3:56 PM 81.0 °F 39.0 °F 22% 29.66 in - West 6.9 mph 19.6 mph N/A   Unknown
4:56 PM 81.0 °F 37.9 °F 21% 29.67 in - NW 10.4 mph - N/A   Unknown
5:56 PM 81.0 °F 37.9 °F 21% 29.68 in - NNW 12.7 mph 18.4 mph N/A   Unknown
6:56 PM 78.1 °F 37.0 °F 23% 29.69 in - NNW 15.0 mph - N/A   Unknown
7:56 PM 73.9 °F 37.0 °F 26% 29.70 in - North 12.7 mph 24.2 mph N/A   Unknown
8:56 PM 66.9 °F 37.9 °F 34% 29.70 in - North 9.2 mph - N/A   Unknown
9:56 PM 66.0 °F 39.0 °F 37% 29.73 in - North 13.8 mph - N/A   Unknown
10:56 PM 63.0 °F 39.9 °F 43% 29.76 in - NNE 16.1 mph - N/A   Unknown
11:56 PM 59.0 °F 39.9 °F 49% 29.84 in - North 4.6 mph - N/A   Unknown